Regional Weather Roundup
Issued by NWS Wakefield, VA

Home | Current Version | Previous Version | Graphics & Text | Print | Product List | Glossary On
Versions: 1 2 3 4 5 6 7 8 9 10 11 12 13 14 15 16 17 18 19 20 21 22 23 24 25 26 27 28 29 30 31 32 33 34 35 36 37 38 39 40 41 42 43 44 45 46 47 48 49 50
377
ASUS41 KAKQ 280815
RWRAKQ

REGIONAL WEATHER ROUNDUP
NATIONAL WEATHER SERVICE WAKEFIELD VA
400 AM EDT SAT MAY 28 2016

Note: "fair" indicates few or no clouds below 12,000 feet with no
significant weather and/or obstructions to visibility. * = Denotes
station may not report precipitation (e.g., rain,snow,etc.),
thunder or fog.

VAZ042-051-052>054-056-280900-
NORTHERN VIRGINIA

CITY           SKY/WX    TMP DP  RH WIND       PRES   REMARKS
WASH NATIONAL  FAIR      72  66  81 S10       30.10R
DULLES         FAIR      72  65  78 S7        30.09R
FORT BELVOIR   FAIR      69  64  84 CALM      30.10R
QUANTICO       FAIR      73  65  75 SW8       30.11R
FREDERICKSBRG* FAIR      71  62  74 S3        30.11R
STAFFORD*      FAIR      70  60  70 S5        30.15S
WARRENTON      FAIR      72  60  67 S5        30.10S
CULPEPER*      FAIR      72  66  82 S3        30.11R
MANASSAS*      FAIR      72  64  78 S5        30.10R
LEESBURG*      FAIR      70  70 100 SW6       30.10S
WINCHESTER     FAIR      66  63  88 SW3       30.10R
FRONT ROYAL*   FAIR      64  64 100 S5        30.09S
LURAY*         FAIR      64  64 100 CALM      30.12S
$$

VAZ048-049-060>072-079>083-280900-
CENTRAL AND SOUTH CENTRAL VIRGINIA

CITY           SKY/WX    TMP DP  RH WIND       PRES   REMARKS
RICHMOND       FAIR      65  60  84 S5        30.14R
CHESTERFIELD*  FAIR      64  52  63 S3        30.15R
PETERSBURG*    FAIR      65  64  97 CALM      30.15R
HANOVER        FAIR      69  57  65 S7        30.14R
TAPPAHANNOCK*  FAIR      68  58  72 S3        30.14R
QUINTON*       FAIR      67  61  79 SE5       30.14R
CHARLOTTSVILLE FAIR      69  64  84 S6        30.11S
GORDONSVILLE*  FAIR      67  65  95 SW6       30.11S
ORANGE*        FAIR      68  66  94 CALM      30.13S
LOUISA*        FAIR      72  64  78 CALM      30.11S
BUMPASS*       FAIR      67  60  79 CALM      30.13R
FARMVILLE*     FAIR      65  62  88 S5        30.12S
CREWE*         FAIR      65  63  92 CALM      30.13S
FORT PICKETT*  NOT AVBL
CHASE CITY*    FAIR      63  61  94 CALM      30.15R
CLARKSVILLE*   FAIR      63  61  94 CALM      30.14S
SOUTH HILL*    FAIR      62  58  88 CALM      30.20S
LAWRENCEVILLE* FAIR      62  59  90 CALM      30.15S
EMPORIA*       FAIR      59  57  94 CALM      30.17R
$$

VAZ088>098-280900-
SOUTHEAST VIRGINIA

CITY           SKY/WX    TMP DP  RH WIND       PRES   REMARKS
NORFOLK        FAIR      64  60  87 S5        30.15S
VIRGINIA BEACH FAIR      64  58  80 CALM      30.15R
NORFOLK NAVAL  FAIR      67  61  81 S3        30.17R
WEST POINT*    FAIR      69  59  72 S5        30.16R
SALUDA*        FAIR      68  63  83 S6        30.14R
NEWPORT NEWS   FAIR      68  62  81 SW8       30.15R
LANGLEY AFB    FAIR      68  62  83 S8        30.15R
FORT EUSTIS    FAIR      69  60  74 S5        30.13R
WILLIAMSBURG*  FAIR      70  63  78 S3        30.16S
HR EXEC AP*      N/A     55  54  94 CALM      30.18R
FRANKLIN*      FAIR      61  59  91 CALM      30.16R
US460-WAKEFLD  FAIR      66  60  81 CALM      30.15R
$$

VAZ020-022-025-037-045-280900-
WEST CENTRAL AND SOUTHWEST VIRGINIA

CITY           SKY/WX    TMP DP  RH WIND       PRES   REMARKS
STAUNTON*      FOG       62  62 100 CALM      30.15F VSB 1/2
WAYNESBORO*    FAIR      65  63  94 CALM      30.15S
HOT SPRINGS VA FAIR      64  63  98 SW9       30.23S
LYNCHBURG      FAIR      65  62  90 CALM      30.15S
DANVILLE       FAIR      61  59  93 CALM      30.15R
SOUTH BOSTON*  FAIR      64  62  94 CALM      30.14S
MARTINSVILLE   FAIR      57  57 100 CALM      30.18S FOG
ROANOKE        FAIR      67  64  90 CALM      30.16R
BLACKSBURG     FAIR      62  61  97 CALM      30.21S
DUBLIN*        FAIR      62  62 100 CALM      30.19S FOG
MARION*        FOG       58  57  96 CALM      30.22S VSB<1/4
HILLSVILLE*    FAIR      63  61  94 CALM      30.19S
RICHLANDS*     FAIR      68  66  94 CALM      30.19R
WISE*          FAIR      64  55  72 S8        30.19R
ABINGDON*      FAIR      64  63  98 CALM      30.16S
$$

MDZ021>025-VAZ099-100-280900-
SOUTHERN MARYLAND AND THE DELMARVA PENINSULA

CITY           SKY/WX    TMP DP  RH WIND       PRES   REMARKS
PATUXENT RIVER CLEAR     70  58  65 SW7       30.12R
BAY BRIDGE APT CLEAR     72  63  73 S7        30.10R
LEONARDTOWN    CLEAR     68  57  68 S6        30.14R
DOVER          CLEAR     70  66  86 S12       30.09S
GEORGETOWN     CLEAR     67  61  81 SW7       30.13S
EASTON         CLEAR     72  66  82 SW8       30.15R
CAMBRIDGE        N/A     68  63  83 S3        30.12S
SALISBURY      CLEAR     65  61  87 S6        30.14R
OCEAN CITY     CLEAR     69  62  78 SW10      30.14S
WALLOPS ISLAND FAIR      66  62  87 S7        30.15S
ACCOMACK*      FAIR      68  61  77 S7        30.15S
$$

NCZ012>017-030>032-280900-
NORTH CENTRAL AND EASTERN NORTH CAROLINA

CITY           SKY/WX    TMP DP  RH WIND       PRES   REMARKS
ROANOKE RAPIDS FAIR      59  57  94 CALM      30.15S
RALEIGH        CLEAR     62  58  86 CALM      30.15S
ELIZABETH CITY CLEAR     62  61  96 CALM      30.15S
AHOSKIE*       CLEAR     59  58  97 CALM      30.16R
EDENTON*       CLEAR    N/A N/A N/A CALM      30.16S
CURRITUCK*     CLEAR     63  63 100 CALM      30.16S
KILL DEVIL HLS CLEAR     63  62  94 CALM      30.14S
MANTEO         NOT AVBL
CAPE HATTERAS  CLEAR     74  68  81 SE7       30.13F
TARBORO*       FOG       57  56  98 CALM      30.16S VSB 1/4
GOLDSBORO      CLEAR     59  59 100 CALM      30.13S
WASHINGTON     CLEAR     60  58  96 CALM      30.14F
GREENVILLE       N/A     57  57 100 CALM      30.16S FOG
NEW BERN       CLEAR     63  60  90 CALM      30.14F
WILMINGTON     PTCLDY    64  63  96 NE6       30.11S
$$

VAZ048-280900-
ELSEWHERE

CITY           SKY/WX    TMP DP  RH WIND       PRES   REMARKS
HARRISBURG PA  CLEAR     69  65  86 CALM      30.08S
BALTIMORE      PTCLDY    69  64  84 CALM      30.09R
ANNAPOLIS      CLEAR     69  64  84 S5        30.09S
ANDREWS AFB    FAIR      70  62  75 S10       30.09S
PHILADELPHIA   PTCLDY    69  58  67 S6        30.11S
HENDERSON NC   CLEAR     62  56  82 S6        30.15F
GREENSBORO     CLEAR     66  61  84 S5        30.14S
ROCKY MOUNT    CLEAR     58  57  97 CALM      30.15S
$$

VAZ100-280900-
MARINE

STATION/POSITION TIME  TEMP    WIND        PRES    WAVE   SWELL
                       AIR SEA DIR/SP/G            HT/PER HT/PER
                 (UTC) (F)     (DEG/KT/KT) (MB)    (FT/S) (FT/S)
BRANDYWINE LGT   0700   68     220/ 15/ 16 1019.8F
CAPE MAY NJ      0700   68 68  190/  8/ 13 1019.7F
LEWES DE         0700   70 62  210/  8/ 13 1019.8F
15NM E FENWICK I 0750   63 60              1020.7R   2/ 7
OCEAN-CITY-INLET 0700   61 58  220/  9/ 10 1020.9F
WACHAPREAGUE VA  0700   70 74  220/  7/ 10 1020.4F
THOMAS POINT MD  0800   69 66  180/ 13/ 14 1020.3R
GOOSES REEF MD   0800   70 67  170/ 10/ 12 1020.5R   1/ 2
COVE POINT MD    0700   68     180/  6/  7 1020.2F
SOLOMONS ISLAND  0700   72 67  190/  6/  9   N/A
BISHOPS HEAD MD  0700   71 74  180/ 10/ 12 1020.2R
PINEY POINT MD   0700          210/  8/  9   N/A
POTOMAC MD       0800   69 67  230/  6/  8 1019.5R   1/ 2
CAMBRIDGE MD     0700   71 65  180/  5/  7 1018.9F
LEWISETTA VA     0700   71 68  230/ 10/ 12 1019.4F
RAPPAHANNOCK LGT 0700          180/ 13/ 14 1021.1F
STINGRAY PT      0700   70 67  200/  6/  8 1020.8S   1/ 2
YORK RVR RNG VA  0700   71     210/  9/ 11 1020.0F
YORKTOWN VA      0700   70 67  190/  4/  6 1020.3F
JAMESTOWN VA     0800   68 73  170/  4/  6   N/A     0
DOMINION TERM VA 0700   69     200/  6/  7 1020.8F
KIPTOPEKE VA     0700      69  180/  5/  6   N/A
CHES BAY BRIDGE  0700   69 62  170/  6/  8 1020.7F
CAPE HENRY VA    0700   68     190/  5/  7   N/A
CHESAPEAKE LGHT  0700   68     190/ 11/ 12 1021.6F
WILLOUBY STN VA  0700   70     200/ 10/ 12 1021.7F
CAPE HENRY BUOY  0712      67                N/A     2/ 7
1ST LANDING BUOY 0800   67 66  170/  4/  4 1021.0R   1
CAPE CHARLES BUO 0726      65                N/A     2/ 7   2/ 7
OFFSHORE WE BUOY 0721      67                N/A     2/ 7   2/ 7
64NM E OF VA BCH 0750   66 61  160/  4/  4 1021.0R   3/ 7   3/ 7
DUCK PIER NC     0700   65 59  150/  5/  5 1020.4S
44100 DUCK FRF   0724      66                N/A     2/ 7
44056 DUCK FRF   0711      63                N/A     2/ 7
OREGON INLET NC  0700   67 79   90/  4/  4 1020.8F
HATTERAS NC      0700   74 74  110/  6/ 10 1020.0F
DIAMOND SHLS NC  0750   76 78  120/ 12/ 14 1020.0F   4/ 8   3/ 8
CAPE LOOC1F1C2F2C3F3C4F4C5F5C6F6C7F7C8M1C9!



USA.gov is the U.S. government's official web portal to all federal, state and local government web resources and services.